Monticello, KY

9:44 PM EST on December 14, 2019 (GMT -0500)
Wayne County

Weather History for KEKQ - September, 2019

Change the Weather History Date:

Tuesday, September 10, 2019

  Actual Average Record
Temperature  
Mean Temperature 76 °F -  
Max Temperature 96 °F 82 °F 96 °F (1964)
Min Temperature 57 °F 59 °F -74 °F (2013)
Cooling Degree Days 12    
Growing Degree Days 26 (Base 50)    
Moisture  
Dew Point 65 °F    
Average Humidity 70    
Maximum Humidity 100    
Minimum Humidity 37    
Precipitation  
Precipitation 0.00 in - - ()
Sea Level Pressure  
Sea Level Pressure 30.20 in    
Wind  
Wind Speed 7 mph (WNW)    
Max Wind Speed 16 mph    
Max Gust Speed 23 mph    
Visibility 10 miles    
Events      
Averages and records for this station are not official NWS values.
T = Trace of Precipitation, MM = Missing Value Source: NWS Daily Summary

Daily Weather History Graph

Daily Weather History Graph

Search for Another Location

Airport or City:

Astronomy

Sep. 10, 2019 Rise Set
Actual Time 6:17 AM CDT 6:54 PM CDT
Civil Twilight 5:51 AM CDT 7:20 PM CDT
Nautical Twilight 5:20 AM CDT 7:51 PM CDT
Astronomical Twilight 4:48 AM CDT 8:23 PM CDT
Moon 5:24 PM CDT (9/10) 2:49 AM CDT (9/10)
Length of Visible Light 13h 29m
Length of Day
12h 37m
Waxing Gibbous, 89% of the Moon is Illuminated
Sep 10
Waxing Gibbous
Sep 13
Full
Sep 21
Last Quarter
Sep 28
New
Oct 5
First Quarter

Hourly Weather History & Observations

Time (CDT) Temp. Heat Index Dew Point Humidity Pressure Visibility Wind Dir Wind Speed Gust Speed Precip Events Conditions
12:56 AM 60.1 °F - 59.0 °F 96% 30.19 in 10.0 mi WNW 3.5 mph - N/A   Clear
1:56 AM 59.0 °F - 59.0 °F 100% 30.18 in 10.0 mi West 8.1 mph - N/A   Clear
2:56 AM 57.9 °F - 57.9 °F 100% 30.18 in 10.0 mi Calm Calm - N/A   Clear
3:56 AM 57.0 °F - 57.0 °F 100% 30.18 in 10.0 mi Variable 5.8 mph - N/A   Clear
4:56 AM 57.0 °F - 57.0 °F 100% 30.19 in 10.0 mi NW 9.2 mph - N/A   Clear
5:56 AM 59.0 °F - 57.9 °F 96% 30.20 in 10.0 mi Calm Calm - N/A   Clear
6:56 AM 62.1 °F - 61.0 °F 96% 30.21 in 10.0 mi Calm Calm - N/A   Clear
7:56 AM 70.0 °F - 68.0 °F 93% 30.23 in 9.0 mi Variable 4.6 mph - N/A   Clear
8:56 AM 80.1 °F 82.9 °F 69.1 °F 69% 30.23 in 10.0 mi North 8.1 mph - N/A   Clear
9:56 AM 86.0 °F 90.1 °F 69.1 °F 57% 30.23 in 10.0 mi Variable 6.9 mph - N/A   Clear
10:56 AM 91.9 °F 97.4 °F 70.0 °F 48% 30.22 in 10.0 mi Variable 5.8 mph - N/A   Clear
11:23 AM 93.2 °F 97.7 °F 68.0 °F 44% 30.25 in 10.0 mi West 16.1 mph 20.7 mph N/A   Clear
11:56 AM 95.0 °F 99.5 °F 68.0 °F 41% 30.21 in 10.0 mi West 15.0 mph - N/A   Clear
12:56 PM 96.1 °F 99.3 °F 66.0 °F 37% 30.20 in 10.0 mi WSW 15.0 mph 20.7 mph N/A   Clear
1:56 PM 96.1 °F 99.3 °F 66.0 °F 37% 30.19 in 10.0 mi NW 10.4 mph 19.6 mph N/A   Clear
2:56 PM 93.9 °F 96.1 °F 64.9 °F 38% 30.18 in 10.0 mi West 15.0 mph 23.0 mph N/A   Scattered Clouds
3:56 PM 93.9 °F 96.1 °F 64.9 °F 38% 30.17 in 10.0 mi West 9.2 mph 16.1 mph N/A   Clear
4:56 PM 90.0 °F 92.4 °F 66.0 °F 45% 30.17 in 10.0 mi SE 13.8 mph - N/A   Mostly Cloudy
5:56 PM 86.0 °F 87.6 °F 64.9 °F 49% 30.17 in 10.0 mi North - - N/A   Clear
6:56 PM 81.0 °F 83.3 °F 66.9 °F 62% 30.17 in 10.0 mi NE 6.9 mph - N/A   Clear
8:56 PM 73.0 °F - 66.9 °F 81% 30.22 in 10.0 mi North - - N/A   Clear
9:56 PM 77.0 °F - 69.1 °F 76% 30.23 in 10.0 mi WSW 12.7 mph - N/A   Clear
10:12 PM 77.0 °F - 69.8 °F 78% 30.27 in 10.0 mi NNW 8.1 mph - N/A   Partly Cloudy
10:56 PM 71.1 °F - 68.0 °F 90% 30.22 in 10.0 mi West 10.4 mph - N/A   Clear
11:56 PM 72.0 °F - 68.0 °F 87% 30.22 in 10.0 mi NE 9.2 mph - N/A   Clear